SYY weather

Stornoway Airport
Stornoway, Scotland, United Kingdom

Public forecast

Using degrees Celsius for public forecast. Weather courtesy of forecast.io.

Current aviation weather report (METAR) for Stornoway Airport

Retrieved 2020/02/24 05:50 UTC (34 minutes ago):

EGPO 240550Z 11007KT 9999 FEW018 SCT039 04/01 Q1008

Aviation forecast (TAF) for Stornoway Airport

Forecast is more than 12 hours old.

Retrieved 2017/03/05 03:00 UTC (3 years ago):

TAF TAF EGPO 050556Z 0503/0515 CNL